TimeEDT,TemperatureF,Dew PointF,Humidity,Sea Level PressureIn,VisibilityMPH,Wind Direction,Wind SpeedMPH,Gust SpeedMPH,PrecipitationIn,Events,Conditions,WindDirDegrees,DateUTC
12:15 AM,69.8,69.8,100,29.98,7.0,Calm,Calm,-,N/A,,Unknown,0,2013-09-01 04:15:00
12:35 AM,68.0,68.0,100,29.98,5.0,Calm,Calm,-,N/A,,Mist,0,2013-09-01 04:35:00
12:55 AM,68.0,68.0,100,29.98,7.0,Calm,Calm,-,N/A,,Unknown,0,2013-09-01 04:55:00
1:15 AM,68.0,68.0,100,29.98,10.0,Calm,Calm,-,N/A,,Unknown,0,2013-09-01 05:15:00
1:35 AM,68.0,68.0,100,29.97,7.0,Calm,Calm,-,N/A,,Unknown,0,2013-09-01 05:35:00
1:55 AM,68.0,68.0,100,29.96,3.0,Calm,Calm,-,N/A,,Mist,0,2013-09-01 05:55:00
2:15 AM,68.0,68.0,100,29.96,6.0,Calm,Calm,-,N/A,,Mist,0,2013-09-01 06:15:00
2:35 AM,68.0,68.0,100,29.95,5.0,Calm,Calm,-,N/A,,Mist,0,2013-09-01 06:35:00
2:55 AM,68.0,68.0,100,29.95,10.0,Calm,Calm,-,N/A,,Unknown,0,2013-09-01 06:55:00
3:15 AM,68.0,68.0,100,29.94,10.0,Calm,Calm,-,N/A,,Unknown,0,2013-09-01 07:15:00
3:35 AM,68.0,68.0,100,29.94,10.0,Calm,Calm,-,N/A,,Unknown,0,2013-09-01 07:35:00
3:55 AM,68.0,68.0,100,29.95,10.0,Calm,Calm,-,N/A,,Unknown,0,2013-09-01 07:55:00
4:15 AM,68.0,68.0,100,29.96,4.0,Calm,Calm,-,N/A,Rain,Light Rain,0,2013-09-01 08:15:00
4:35 AM,68.0,68.0,100,29.96,5.0,Calm,Calm,-,N/A,Rain,Light Rain,0,2013-09-01 08:35:00
4:55 AM,68.0,68.0,100,29.94,5.0,Calm,Calm,-,0.01,Rain,Light Rain,0,2013-09-01 08:55:00
5:15 AM,66.2,66.2,100,29.94,4.0,Calm,Calm,-,N/A,Rain,Light Rain,0,2013-09-01 09:15:00
5:35 AM,66.2,66.2,100,29.93,5.0,Calm,Calm,-,N/A,,Mist,0,2013-09-01 09:35:00
5:55 AM,66.2,66.2,100,29.93,5.0,Calm,Calm,-,N/A,,Mist,0,2013-09-01 09:55:00
6:15 AM,66.2,66.2,100,29.94,3.0,Calm,Calm,-,N/A,,Mist,0,2013-09-01 10:15:00
6:35 AM,66.2,66.2,100,29.93,3.0,Calm,Calm,-,N/A,,Mist,0,2013-09-01 10:35:00
6:55 AM,66.2,66.2,100,29.94,3.0,Calm,Calm,-,N/A,,Mist,0,2013-09-01 10:55:00
7:15 AM,66.2,66.2,100,29.95,5.0,Calm,Calm,-,N/A,,Mist,0,2013-09-01 11:15:00
7:35 AM,66.2,66.2,100,29.95,7.0,Calm,Calm,-,N/A,,Mostly Cloudy,0,2013-09-01 11:35:00
7:55 AM,66.2,66.2,100,29.96,5.0,Calm,Calm,-,N/A,Thunderstorm,Overcast,0,2013-09-01 11:55:00
8:15 AM,68.0,68.0,100,29.97,5.0,Calm,Calm,-,N/A,Thunderstorm,Overcast,0,2013-09-01 12:15:00
8:35 AM,68.0,68.0,100,29.97,1.8,Calm,Calm,-,0.22,Rain-Thunderstorm,Light Rain,0,2013-09-01 12:35:00
8:55 AM,66.2,66.2,100,29.94,1.5,ESE,5.8,-,0.28,Rain-Thunderstorm,Light Thunderstorms and Rain,120,2013-09-01 12:55:00
9:15 AM,66.2,66.2,100,29.94,3.0,Calm,Calm,-,0.01,Rain,Light Rain,0,2013-09-01 13:15:00
9:35 AM,68.0,68.0,100,29.95,6.0,Calm,Calm,-,0.02,Thunderstorm,Mostly Cloudy,0,2013-09-01 13:35:00
9:55 AM,68.0,68.0,100,29.96,9.0,NNE,3.5,-,0.02,,Overcast,20,2013-09-01 13:55:00
10:15 AM,68.0,68.0,100,29.97,10.0,Calm,Calm,-,N/A,,Overcast,0,2013-09-01 14:15:00
10:35 AM,68.0,68.0,100,29.96,10.0,Calm,Calm,-,N/A,,Overcast,0,2013-09-01 14:35:00
10:55 AM,68.0,68.0,100,29.96,10.0,SE,3.5,-,N/A,,Overcast,140,2013-09-01 14:55:00
11:15 AM,68.0,68.0,100,29.96,9.0,Calm,Calm,-,N/A,Rain,Light Rain,0,2013-09-01 15:15:00
11:35 AM,69.8,69.8,100,29.96,10.0,Calm,Calm,-,N/A,,Overcast,0,2013-09-01 15:35:00
11:55 AM,71.6,69.8,94,29.96,10.0,Calm,Calm,-,N/A,,Overcast,0,2013-09-01 15:55:00
12:15 PM,71.6,69.8,94,29.96,10.0,Calm,Calm,-,N/A,,Overcast,0,2013-09-01 16:15:00
12:35 PM,71.6,68.0,88,29.96,10.0,Calm,Calm,-,N/A,,Overcast,0,2013-09-01 16:35:00
12:55 PM,71.6,69.8,94,29.95,10.0,Calm,Calm,-,N/A,,Overcast,0,2013-09-01 16:55:00
1:15 PM,73.4,69.8,88,29.95,10.0,Calm,Calm,-,N/A,,Overcast,0,2013-09-01 17:15:00
1:35 PM,75.2,69.8,83,29.95,10.0,WSW,8.1,-,N/A,,Mostly Cloudy,240,2013-09-01 17:35:00
1:55 PM,77.0,71.6,83,29.94,10.0,WSW,10.4,-,N/A,,Scattered Clouds,240,2013-09-01 17:55:00
2:15 PM,78.8,69.8,74,29.94,10.0,WSW,9.2,-,N/A,,Partly Cloudy,250,2013-09-01 18:15:00
2:35 PM,80.6,69.8,70,29.93,10.0,WSW,9.2,-,N/A,,Partly Cloudy,250,2013-09-01 18:35:00
2:55 PM,80.6,69.8,70,29.92,10.0,WSW,9.2,-,N/A,,Scattered Clouds,240,2013-09-01 18:55:00
3:15 PM,80.6,69.8,70,29.91,10.0,SW,10.4,-,N/A,,Partly Cloudy,230,2013-09-01 19:15:00
3:35 PM,80.6,69.8,70,29.91,10.0,SW,11.5,-,N/A,,Partly Cloudy,220,2013-09-01 19:35:00
3:55 PM,82.4,69.8,66,29.91,10.0,WSW,6.9,-,N/A,,Partly Cloudy,250,2013-09-01 19:55:00
4:15 PM,80.6,69.8,70,29.90,10.0,SW,8.1,-,N/A,,Partly Cloudy,230,2013-09-01 20:15:00
4:35 PM,80.6,69.8,70,29.89,10.0,WSW,8.1,-,N/A,,Partly Cloudy,240,2013-09-01 20:35:00
4:55 PM,80.6,71.6,74,29.89,10.0,WSW,9.2,-,N/A,,Clear,240,2013-09-01 20:55:00
5:15 PM,82.4,71.6,70,29.89,10.0,SW,9.2,-,N/A,,Clear,230,2013-09-01 21:15:00
5:35 PM,82.4,69.8,66,29.90,10.0,SW,9.2,-,N/A,,Partly Cloudy,230,2013-09-01 21:35:00
5:55 PM,82.4,69.8,66,29.89,10.0,SW,8.1,-,N/A,,Partly Cloudy,230,2013-09-01 21:55:00
6:15 PM,80.6,69.8,70,29.90,10.0,WSW,4.6,-,N/A,,Scattered Clouds,250,2013-09-01 22:15:00
6:35 PM,82.4,69.8,66,29.90,10.0,SW,6.9,-,N/A,,Mostly Cloudy,230,2013-09-01 22:35:00
6:55 PM,80.6,71.6,74,29.90,10.0,West,3.5,-,N/A,,Partly Cloudy,260,2013-09-01 22:55:00
7:15 PM,78.8,71.6,78,29.90,10.0,Calm,Calm,-,N/A,,Mostly Cloudy,0,2013-09-01 23:15:00
7:35 PM,78.8,73.4,83,29.91,10.0,Calm,Calm,-,N/A,,Mostly Cloudy,0,2013-09-01 23:35:00
7:55 PM,77.0,73.4,89,29.91,10.0,Calm,Calm,-,N/A,,Partly Cloudy,0,2013-09-01 23:55:00
8:15 PM,75.2,73.4,94,29.90,10.0,Calm,Calm,-,N/A,,Unknown,0,2013-09-02 00:15:00
8:35 PM,73.4,73.4,100,29.91,10.0,Calm,Calm,-,N/A,,Partly Cloudy,0,2013-09-02 00:35:00
8:55 PM,73.4,73.4,100,29.92,9.0,Calm,Calm,-,N/A,,Partly Cloudy,0,2013-09-02 00:55:00
9:15 PM,71.6,71.6,100,29.92,7.0,Calm,Calm,-,N/A,,Unknown,0,2013-09-02 01:15:00
9:35 PM,71.6,71.6,100,29.93,10.0,Calm,Calm,-,N/A,,Unknown,0,2013-09-02 01:35:00
9:55 PM,71.6,71.6,100,29.93,8.0,Calm,Calm,-,N/A,,Unknown,0,2013-09-02 01:55:00
10:15 PM,71.6,71.6,100,29.94,9.0,Calm,Calm,-,N/A,,Unknown,0,2013-09-02 02:15:00
10:35 PM,71.6,71.6,100,29.94,5.0,Calm,Calm,-,N/A,,Mist,0,2013-09-02 02:35:00
10:55 PM,71.6,71.6,100,29.94,5.0,Calm,Calm,-,N/A,,Mist,0,2013-09-02 02:55:00
11:15 PM,71.6,71.6,100,29.94,6.0,Calm,Calm,-,N/A,,Mist,0,2013-09-02 03:15:00
11:35 PM,69.8,69.8,100,29.94,9.0,Calm,Calm,-,N/A,,Unknown,0,2013-09-02 03:35:00
11:55 PM,68.0,68.0,100,29.94,5.0,Calm,Calm,-,N/A,,Mist,0,2013-09-02 03:55:00